Location: Wallasey
(53.4265°N, 3.0662°W)
Time: 21:52:16
(UTC+01:00)

NOAA 18 - Pass Details

Date: 20 September 2019
Orbit: 840 x 861 km, 99.1° (Epoch: 21 October)

Event Time Altitude Azimuth Distance (km) Brightness Sun altitude
Exits shadow 23:18:46 - 239° (WSW) 2,933 8.0 -31.3°
Reaches altitude 10° 23:21:20 10° 261° (W) 2,498 7.9 -31.5°
Maximum altitude 23:22:56 11° 278° (W) 2,417 8.0 -31.6°
Drops below altitude 10° 23:24:32 10° 295° (WNW) 2,506 8.3 -31.7°
Sets 23:29:04 0° 330° (NNW) 3,453 9.5 -32.1°
